Regional Weather Roundup
Issued by NWS Northern Indiana

Home | Current Version | Previous Version | Graphics & Text | Print | Product List | Glossary On
Versions: 1 2 3 4 5 6 7 8 9 10 11 12 13 14 15 16 17 18 19 20 21 22 23 24 25 26 27 28 29 30 31 32 33 34 35 36 37 38 39 40 41 42 43 44 45 46 47 48 49 50
000
ASUS43 KIWX 251600
RWRIWX

KIWX WEATHER ROUNDUP
NATIONAL WEATHER SERVICE NORTHERN INDIANA
1200 PM EDT SAT OCT 25 2014

NOTE: "FAIR" INDICATES FEW OR NO CLOUDS BELOW 12,000 FEET WITH NO
SIGNIFICANT WEATHER AND/OR OBSTRUCTIONS TO VISIBILITY.

* THESE STATIONS ARE NOT UNDER NWS QUALITY CONTROL. THEY ALSO MAY NOT
  REPORT WEATHER SUCH AS PRECIPITATION OR FOG.

INZ001>027-251700-
NORTHERN INDIANA

CITY           SKY/WX    TMP DP  RH WIND       PRES   REMARKS
GARY*          MOSUNNY   66  55  68 W17       29.95S
SOUTH BEND     PTSUNNY   63  53  70 NW17      29.94R
GOSHEN         CLOUDY    58  54  86 W13       29.91S FOG
ANGOLA*        CLOUDY    57  48  72 W10       29.88F
FORT WAYNE     MOSUNNY   65  54  67 W14       29.91F
PERU/GRISSOM   SUNNY     63  61  93 W12       29.93F

$$
INZ028>050-251700-
CENTRAL INDIANA

CITY           SKY/WX    TMP DP  RH WIND       PRES   REMARKS
LAFAYETTE      SUNNY     63  55  75 W13       29.97R
KOKOMO*        SUNNY     64  55  72 W14       29.95S
MUNCIE*        SUNNY     65  55  70 W10       29.94F
INDIANAPOLIS   MOSUNNY   65  55  70 W9        29.97F

$$
MIZ043>046-050>051-056>058-064>065-071>073-077>080-251700-
SOUTHWEST LOWER MICHIGAN

CITY           SKY/WX    TMP DP  RH WIND       PRES   REMARKS
BATTLE CREEK   CLOUDY    59  53  80 W12G20    29.87F
BENTON HARBOR  MOSUNNY   60  54  80 W15       29.91S HAZE
COLDWATER*     CLOUDY    59  55  86 W9        29.88S FOG
HILLSDALE*     CLOUDY    59  55  88 W12G18    29.86S FOG
HOLLAND        PTSUNNY   61  53  75 W13G20    29.89R
GRAND RAPIDS   MOSUNNY   62  52  69 W10       29.85S
KALAMAZOO      CLOUDY    60  53  77 W12       29.88F
STURGIS*       CLOUDY    59  55  88 W7G16     29.89S
THREE RIVERS*  CLOUDY    61  54  77 W14G22    29.89S

$$
OHZ001>008-015>018-024>025-251700-
NORTHWEST OHIO

CITY           SKY/WX    TMP DP  RH WIND       PRES   REMARKS
DEFIANCE       SUNNY     64  54  69 W13G18    29.87F
FINDLAY        SUNNY     66  54  65 W18       29.86F HAZE
TOLEDO EXPRESS CLOUDY    59  53  80 W15G24    29.85S
TOLEDO METCALF MOSUNNY   63  53  70 W15       29.84F
LIMA           SUNNY     65  54  67 W18       29.89F

$$
AND FOR LAKE MICHIGAN COASTAL AND OPEN LAKE BUOY OBSERVATIONS

STATION/POSITION TEMP    WIND        PRES    VSBY  WAVE
                 AIR SEA DIR/SP/G                  HT/PER
                 (F)     (DEG/KT/KT) (MB)    (MI)  (FT/S)
CALUMET HARBOR    65     290/  8/ 11 1012.7R
MICHIGAN CITY     57     210/ 15/ 17   N/A
SAINT JOSEPH      57                 1013.9R
SOUTH LAKE BUOY   56 54  280/ 14/ 17 1012.1R         2/ 3

$$
&&



USA.gov is the U.S. government's official web portal to all federal, state and local government web resources and services.